Flag for South Africa Weather past 2 weeks in Bloemfontein, South Africa

Now
64 °F

Mild.


Feels Like: 64 °F
Forecast: 66 / 87 °F
Wind: 3 mph from West

Location: Bloemfontein Airport

Current Time: Dec 22, 2014 at 2:40:45 AM

Latest Report: Dec 22, 2014 at 2:00 AM


Visibility: N/A

Pressure: 30.07 "Hg

Humidity: 60%

Dew point: 50 °F

Location of BloemfonteinLocation

Historic Weather in Bloemfontein — Graph

°F

Bloemfontein temperature yesterday

Maximum temperature yesterday: 90 °F (at 3:00 PM)
Minimum temperature yesterday: 50 °F (at 5:00 AM)
Average temperature yesterday: 73 °F

Past Weeks' High & Low Weather Summary

 TemperatureHumidityPressure
High90 °F (Dec 19, 4:00 PM)88% (Dec 9, 5:00 AM)30.24 "Hg (Dec 9, 5:00 AM)
Low50 °F (Dec 21, 5:00 AM)9% (Dec 20, 5:00 PM)29.92 "Hg (Dec 19, 4:00 PM)
Average70 °F57%30.07 "Hg
* Reported Dec 7 1:00 AM — Dec 22 1:00 AM, Bloemfontein, Weather by CustomWeather, © 2014

Note: Actual official high and low records may vary slightly from our data, if they occured in-between our weather recording intervals... More about our weather records

Advertising

Bloemfontein weather history for previous 24 hours

 ConditionsComfort  
Time TempWeatherWind HumidityBarometerVisibility
1:00 AM
Dec 22
68 °FMild.1 mph56%30.04 "HgN/A
12:00 AM70 °FMild.5 mph53%30.04 "HgN/A
11:00 PM
Dec 21
72 °FMild.7 mph44%30.07 "HgN/A
10:00 PM73 °FMild.7 mph47%30.04 "HgN/A
9:00 PM75 °FMild.9 mph41%30.01 "HgN/A
8:00 PM79 °FClear.16 mph32%29.98 "Hg10 mi
7:00 PM86 °FClear.9 mph19%29.95 "Hg10 mi
6:00 PM88 °FSunny.12 mph17%29.95 "Hg10 mi
5:00 PM88 °FSunny.12 mph13%29.95 "Hg10 mi
4:00 PM88 °FPassing clouds.13 mph19%29.95 "HgN/A
3:00 PM90 °FPassing clouds.14 mph17%29.98 "HgN/A
2:00 PM88 °FSunny.10 mph13%30.01 "Hg10 mi
1:00 PM86 °FPassing clouds.10 mph19%30.04 "HgN/A
12:00 PM84 °FPassing clouds.8 mph25%30.04 "HgN/A
11:00 AM81 °FPassing clouds.7 mph28%30.07 "HgN/A
10:00 AM77 °FPassing clouds.7 mph36%30.07 "HgN/A
9:00 AM73 °FPassing clouds.6 mph41%30.07 "HgN/A
8:00 AM66 °FSunny.6 mph56%30.07 "Hg10 mi
7:00 AM61 °FSunny.7 mph59%30.07 "Hg10 mi
6:00 AM54 °FSunny.2 mph67%30.04 "Hg10 mi
5:00 AM50 °FCool.No wind67%30.04 "HgN/A
4:00 AM54 °FCool.3 mph63%30.01 "HgN/A
3:00 AM59 °FRefreshingly cool.2 mph51%30.01 "HgN/A
2:00 AM57 °FRefreshingly cool.No wind55%30.04 "HgN/A
Weather by CustomWeather, © 2014

See weather overviewHow to use our weather pages